Weather History for KHKY - March, 2013

Change the Weather History Date:

Sunday, March 24, 2013

  Actual Average Record
Temperature  
Mean Temperature 41 °F -  
Max Temperature 45 °F 62 °F 82 °F (2007)
Min Temperature 37 °F 38 °F 26 °F (1971)
Degree Days  
Heating Degree Days 24    
Moisture  
Dew Point 38 °F    
Average Humidity 89    
Maximum Humidity 93    
Minimum Humidity 80    
Precipitation  
Precipitation 0.60 in - - ()
Sea Level Pressure  
Sea Level Pressure 29.68 in    
Wind  
Wind Speed 5 mph (NE)    
Max Wind Speed 13 mph    
Max Gust Speed 22 mph    
Visibility 5 miles    
Events Rain    
Averages and records for this station are not official NWS values.
T = Trace of Precipitation, MM = Missing Value Source: NWS Daily Summary

Daily Weather History Graph

Daily Weather History Graph

Search for Another Location

Airport or City:

Trip Planner

Search our weather history database for the weather conditions in past years. The results will help you decide how hot, cold, wet, or windy it might be!

Date:

Astronomy

Mar. 24, 2013 Rise Set
Actual Time 7:23 AM EDT 7:40 PM EDT
Civil Twilight 6:57 AM EDT 8:06 PM EDT
Nautical Twilight 6:27 AM EDT 8:36 PM EDT
Astronomical Twilight 5:57 AM EDT 9:06 PM EDT
Moon 5:11 PM EDT (3/24) 5:27 AM EDT (3/24)
Length of Visible Light 13h 08m
Length of Day
12h 17m
Waxing Gibbous, 91% of the Moon is Illuminated
Mar 24
Waxing Gibbous
Mar 27
Full
Apr 3
Last Quarter
Apr 10
New
Apr 18
First Quarter

Hourly Weather History & Observations

Time (EDT) Temp. Windchill Dew Point Humidity Pressure Visibility Wind Dir Wind Speed Gust Speed Precip Events Conditions
12:53 AM 45.0 °F - 39.0 °F 80% 29.86 in 9.0 mi Calm Calm - N/A   Scattered Clouds
1:53 AM 45.0 °F - 39.0 °F 80% 29.86 in 9.0 mi Calm Calm - N/A   Overcast
2:53 AM 45.0 °F - 39.0 °F 80% 29.86 in 6.0 mi Calm Calm - 0.00 in Rain Light Rain
3:53 AM 44.1 °F 42.5 °F 42.1 °F 93% 29.81 in 4.0 mi NE 3.5 mph - 0.04 in Rain Light Rain
4:53 AM 44.1 °F 42.5 °F 41.0 °F 89% 29.78 in 3.0 mi NNE 3.5 mph - 0.03 in Rain Light Rain
5:53 AM 43.0 °F 41.3 °F 41.0 °F 93% 29.77 in 5.0 mi NNE 3.5 mph - 0.03 in Rain Light Rain
6:53 AM 42.1 °F 37.7 °F 39.9 °F 92% 29.73 in 3.0 mi NE 6.9 mph - 0.05 in Rain Rain
7:42 AM 42.8 °F 38.0 °F 39.2 °F 87% 29.72 in 4.0 mi NNE 8.1 mph - 0.04 in Rain Light Rain
7:53 AM 42.1 °F 37.7 °F 39.0 °F 89% 29.70 in 5.0 mi NNE 6.9 mph - 0.04 in Rain Light Rain
8:09 AM 42.8 °F 37.5 °F 39.2 °F 87% 29.73 in 4.0 mi North 9.2 mph - 0.01 in Rain Rain
8:26 AM 42.8 °F 38.6 °F 39.2 °F 87% 29.78 in 2.5 mi North 6.9 mph - 0.04 in Rain Rain
8:36 AM 42.8 °F 40.1 °F 39.2 °F 87% 29.82 in 1.2 mi NNW 4.6 mph - 0.09 in Rain Heavy Rain
8:53 AM 42.1 °F 40.2 °F 39.0 °F 89% 29.81 in 1.5 mi North 3.5 mph - 0.16 in Rain Heavy Rain
9:10 AM 42.8 °F 36.6 °F 39.2 °F 87% 29.76 in 2.0 mi ENE 11.5 mph - 0.05 in Rain Rain
9:21 AM 42.8 °F 38.0 °F 39.2 °F 87% 29.76 in 2.5 mi NE 8.1 mph - 0.06 in Rain Light Rain
9:28 AM 42.8 °F 36.2 °F 39.2 °F 87% 29.75 in 4.0 mi NE 12.7 mph - 0.06 in Rain Light Rain
9:51 AM 41.0 °F 35.8 °F 39.2 °F 93% 29.75 in 6.0 mi NE 8.1 mph - 0.07 in Rain Light Rain
9:53 AM 41.0 °F 33.9 °F 37.9 °F 89% 29.72 in 6.0 mi ENE 12.7 mph 17.3 mph 0.07 in   Overcast
10:08 AM 41.0 °F 34.3 °F 37.4 °F 87% 29.75 in 8.0 mi ENE 11.5 mph - N/A   Overcast
10:42 AM 41.0 °F 34.7 °F 37.4 °F 87% 29.76 in 2.5 mi NNE 10.4 mph 17.3 mph 0.02 in Rain Rain
10:53 AM 41.0 °F 35.2 °F 37.9 °F 89% 29.72 in 3.0 mi NE 9.2 mph - 0.03 in Rain Light Rain
10:58 AM 41.0 °F 34.3 °F 37.4 °F 87% 29.74 in 3.0 mi NNE 11.5 mph 19.6 mph 0.00 in Rain Light Rain
11:22 AM 39.2 °F 32.5 °F 37.4 °F 93% 29.72 in 4.0 mi NE 10.4 mph - 0.01 in Rain Light Rain
11:44 AM 41.0 °F 34.7 °F 37.4 °F 87% 29.71 in 6.0 mi NNE 10.4 mph 18.4 mph 0.02 in Rain Light Rain
11:53 AM 39.9 °F 33.4 °F 37.0 °F 89% 29.68 in 5.0 mi NNE 10.4 mph 21.9 mph 0.02 in Rain Light Rain
12:47 PM 39.2 °F 33.0 °F 37.4 °F 93% 29.69 in 2.5 mi NNE 9.2 mph - 0.02 in Rain Light Rain
12:53 PM 39.9 °F 32.9 °F 37.0 °F 89% 29.67 in 2.0 mi NNE 11.5 mph - 0.04 in Rain Heavy Rain
1:04 PM 39.2 °F 32.5 °F 37.4 °F 93% 29.67 in 3.0 mi NNE 10.4 mph - 0.02 in Rain Light Rain
1:53 PM 39.9 °F 34.5 °F 37.0 °F 89% 29.62 in 3.0 mi NE 8.1 mph - 0.05 in Rain Light Rain
2:07 PM 39.2 °F 33.0 °F 37.4 °F 93% 29.63 in 3.0 mi NE 9.2 mph - 0.00 in Rain Light Rain
2:16 PM 39.2 °F 32.5 °F 37.4 °F 93% 29.64 in 3.0 mi ENE 10.4 mph - 0.00 in Rain Light Rain
2:24 PM 39.2 °F 33.6 °F 35.6 °F 87% 29.64 in 2.0 mi NE 8.1 mph - 0.01 in Rain Light Rain
2:53 PM 39.0 °F 33.4 °F 37.0 °F 93% 29.62 in 1.8 mi NNE 8.1 mph - 0.02 in Rain Light Rain
3:09 PM 39.2 °F 35.0 °F 37.4 °F 93% 29.63 in 2.0 mi NNE 5.8 mph - 0.01 in Rain Light Rain
3:33 PM 41.0 °F 37.1 °F 37.4 °F 87% 29.62 in 3.0 mi NE 5.8 mph - 0.01 in Rain Light Rain
3:53 PM 41.0 °F 36.4 °F 37.9 °F 89% 29.59 in 3.0 mi NE 6.9 mph - 0.01 in   Overcast
4:53 PM 41.0 °F 35.2 °F 37.0 °F 86% 29.52 in 10.0 mi ENE 9.2 mph - N/A   Overcast
5:12 PM 41.0 °F 38.0 °F 37.4 °F 87% 29.56 in 10.0 mi NE 4.6 mph - N/A   Overcast
5:40 PM 39.2 °F 34.2 °F 35.6 °F 87% 29.56 in 10.0 mi ENE 6.9 mph - N/A   Overcast
5:53 PM 39.9 °F 35.1 °F 36.0 °F 86% 29.54 in 10.0 mi ENE 6.9 mph - N/A   Overcast
6:40 PM 39.2 °F 37.0 °F 35.6 °F 87% 29.57 in 10.0 mi East 3.5 mph - N/A   Overcast
6:53 PM 39.9 °F 37.8 °F 36.0 °F 86% 29.55 in 10.0 mi East 3.5 mph - N/A   Overcast
7:53 PM 39.0 °F - 36.0 °F 89% 29.59 in 4.0 mi Calm Calm - 0.00 in Rain Light Rain
8:07 PM 37.4 °F - 35.6 °F 93% 29.61 in 2.5 mi Calm Calm - 0.00 in   Overcast
8:35 PM 37.4 °F 32.1 °F 35.6 °F 93% 29.58 in 3.0 mi East 6.9 mph - 0.00 in   Overcast
8:53 PM 37.9 °F 34.4 °F 36.0 °F 93% 29.57 in 4.0 mi East 4.6 mph - 0.00 in   Overcast
9:53 PM 37.0 °F 34.5 °F 35.1 °F 93% 29.56 in 6.0 mi Variable 3.5 mph - N/A   Overcast
10:53 PM 37.0 °F - 35.1 °F 93% 29.57 in 6.0 mi Calm Calm - 0.01 in   Overcast
11:53 PM 37.0 °F - 35.1 °F 93% 29.57 in 4.0 mi Calm Calm - N/A   Overcast